Home > Weather > Odesa > Past weeks

Flag for Ukraine Past Weather in Odesa, Ukraine — Yesterday and Last 2 Weeks

Now
72 °F

Clear.


Feels Like: 72 °F
Forecast: 71 / 83 °F
Wind: No wind

Location: Odesa Airport

Current Time: Aug 29, 2016 at 11:04:32 PM

Latest Report: Aug 29, 2016 at 10:30 PM


Visibility: 10 mi

Pressure: 29.92 "Hg

Humidity: 78%

Dew Point: 64 °F

Location of OdesaLocation

Past Weather in Odesa — Graph

°F

Odesa Temperature Yesterday

Maximum temperature yesterday: 90 °F (at 4:00 PM)
Minimum temperature yesterday: 68 °F (at 6:00 AM)
Average temperature yesterday: 79 °F

High & Low Weather Summary for the Past Weeks

 TemperatureHumidityPressure
High93 °F (Aug 21, 5:00 PM)100% (Aug 17, 6:30 AM)30.15 "Hg (Aug 17, 6:30 AM)
Low61 °F (Aug 15, 5:30 AM)26% (Aug 20, 3:30 PM)29.83 "Hg (Aug 23, 2:30 AM)
Average76 °F62%29.98 "Hg
* Reported Aug 14 10:00 PM — Aug 29 10:00 PM, Odesa, Weather by CustomWeather, © 2016

Note: Actual official high and low records may vary slightly from our data, if they occured in-between our weather recording intervals... More about our weather records

Advertising

Odesa Weather History for the Previous 24 Hours

Scroll right to see more
 ConditionsComfort  
Time TempWeatherWind HumidityBarometerVisibility
10:00 PM
Mon, Aug 29
72 °FClear.3 mph73%29.92 "Hg10 mi
9:30 PM72 °FClear.No wind73%29.92 "Hg10 mi
9:00 PM75 °FClear.3 mph65%29.92 "Hg10 mi
8:30 PM75 °FSunny.1 mph65%29.92 "Hg10 mi
8:00 PM77 °FSunny.3 mph65%29.92 "Hg10 mi
7:30 PM79 °FSunny.1 mph61%29.92 "Hg10 mi
7:00 PM79 °FSunny.No wind58%29.92 "Hg10 mi
6:30 PM81 °FSunny.3 mph51%29.92 "Hg10 mi
6:00 PM81 °FPartly sunny.10 mph51%29.92 "HgN/A
5:30 PM84 °FThundershowers. Partly sunny.No wind40%29.92 "HgN/A
5:00 PM84 °FThunderstorms. Broken clouds.6 mph40%29.92 "HgN/A
4:30 PM84 °FPartly sunny.8 mph43%29.92 "HgN/A
4:00 PM86 °FPartly sunny.10 mph38%29.95 "HgN/A
3:30 PM88 °FPassing clouds.10 mph35%29.95 "HgN/A
3:00 PM88 °FSunny.13 mph35%29.95 "Hg10 mi
2:30 PM88 °FPassing clouds.8 mph35%29.95 "HgN/A
2:00 PM86 °FPassing clouds.6 mph35%29.98 "HgN/A
1:30 PM86 °FPartly sunny.3 mph38%29.98 "HgN/A
1:00 PM84 °FBroken clouds.1 mph37%29.98 "HgN/A
12:30 PM86 °FBroken clouds.3 mph35%29.98 "HgN/A
12:00 PM82 °FPartly sunny.No wind45%30.01 "HgN/A
11:30 AM82 °FPartly sunny.No wind45%30.01 "HgN/A
11:00 AM81 °FPartly sunny.No wind54%30.01 "HgN/A
10:30 AM77 °FPartly sunny.3 mph61%30.01 "HgN/A
10:00 AM75 °FPartly sunny.3 mph69%30.01 "HgN/A
9:30 AM73 °FSprinkles. Broken clouds.3 mph78%30.01 "HgN/A
9:00 AM73 °FBroken clouds.6 mph78%30.04 "HgN/A
8:30 AM73 °FPartly sunny.6 mph69%30.01 "HgN/A
8:00 AM73 °FPartly sunny.6 mph69%30.01 "HgN/A
7:30 AM73 °FPartly sunny.1 mph74%30.01 "HgN/A
7:00 AM73 °FPassing clouds.3 mph74%30.01 "HgN/A
6:30 AM72 °FPassing clouds.6 mph73%30.01 "HgN/A
6:00 AM72 °FClear.6 mph78%29.98 "Hg10 mi
5:30 AM72 °FClear.3 mph73%29.98 "Hg10 mi
5:00 AM73 °FPassing clouds.3 mph69%29.98 "HgN/A
4:30 AM73 °FClear.8 mph65%29.98 "Hg10 mi
4:00 AM75 °FClear.8 mph54%29.98 "Hg10 mi
3:30 AM77 °FClear.8 mph51%29.98 "Hg10 mi
3:00 AM77 °FClear.8 mph51%30.01 "Hg10 mi
2:30 AM75 °FClear.6 mph57%30.01 "Hg10 mi
2:00 AM73 °FClear.3 mph61%30.01 "Hg10 mi
1:30 AM73 °FClear.6 mph57%30.01 "Hg10 mi
1:00 AM75 °FClear.6 mph57%30.01 "Hg10 mi
12:30 AM72 °FClear.3 mph69%30.01 "Hg10 mi
12:00 AM72 °FClear.3 mph65%30.01 "Hg10 mi
11:30 PM
Sun, Aug 28
73 °FClear.No wind65%30.01 "Hg10 mi
11:00 PM72 °FClear.No wind65%30.01 "Hg10 mi
Weather by CustomWeather, © 2016

See weather overviewHow to use our weather pages